Weather Roundup
Issued by NWS

Home | Current Version | Previous Version | Graphics & Text | Print | Product List | Glossary Off
Versions: 1 2 3 4 5 6 7 8 9 10 11 12 13 14 15 16 17 18 19 20 21 22 23 24 25 26 27 28 29 30 31 32 33 34 35 36 37 38 39 40 41 42 43 44 45 46 47 48 49 50

000
NZUS93 KARX 171759
HRRWXR

CURRENT HOURLY OBSERVATIONS ACROSS
MUCH OF THE UPPER MISSISSIPPI VALLEY
NATIONAL WEATHER SERVICE LA CROSSE WI
100 PM CDT FRI APR 17 2015


...SOUTHEAST MINNESOTA...


CITY           SKY/WX    TMP DP  RH WIND       PRES   REMARKS
ROCHESTER      SUNNY     72  45  37 NW9       30.08F
ROCHESTER/MAYO FAIR      71  44  37 W5        30.07F
WINONA         SUNNY     73  43  33 N10       30.05F
AUSTIN         SUNNY     72  46  40 CALM      30.07F
ALBERT LEA     SUNNY     73  45  35 W5        30.07F
DODGE CENTER   SUNNY     72  46  40 N7        30.07F
PRESTON        SUNNY     71  44  38 W3        30.08F
OWATONNA       SUNNY     73  45  35 W8G16     30.07F
FARIBAULT      SUNNY     72  46  40 W9        30.07F
$$

...ELSEWHERE IN MINNESOTA...


CITY           SKY/WX    TMP DP  RH WIND       PRES   REMARKS
MINNEAPOLIS    MOSUNNY   70  43  37 N3        30.07F
INTNL FALLS    NOT AVBL
DULUTH         NOT AVBL
RED WING       SUNNY     75  43  31 NW9G18    30.04F
REDWOOD FALLS  SUNNY     71  41  33 NW10      30.08F
MANKATO        SUNNY     70  45  40 N6        30.08F
WORTHINGTON    SUNNY     70  45  40 NE5       30.10F
FAIRMONT       SUNNY     73  45  35 NW5       30.08F
$$

...SOUTHWEST WISCONSIN...


CITY           SKY/WX    TMP DP  RH WIND       PRES   REMARKS
LA CROSSE      SUNNY     76  46  34 NW7       30.04F
PRAIRIE DU CHI SUNNY     74  43  32 NW3       30.04F
BOSCOBEL       MOSUNNY   77  46  33 W5        30.04F
LONE ROCK      NOT AVBL
PLATTEVILLE    MOSUNNY   75  47  37 NW5       30.06F
FORT MC COY    SUNNY     74  41  30 NW5       30.06F
VIROQUA        FAIR      73  43  33 W8        30.07F
WIS DELLS      CLOUDY    74  41  29 CALM      30.04F
$$

...ELSEWHERE IN WISCONSIN...


CITY           SKY/WX    TMP DP  RH WIND       PRES   REMARKS
MILWAUKEE      PTSUNNY   59  42  53 NE15      30.05S
MADISON        PTSUNNY   76  46  34 VRB3      30.04F
GREEN BAY      SUNNY     68  41  37 S3        30.04F
EAU CLAIRE     NOT AVBL
BLACK RVR FLS  FAIR      74  40  28 N9        30.04F
MEDFORD        PTSUNNY   69  44  39 W9        30.05F
WAUSAU         SUNNY     72  42  34 VRB5      30.02F
WIS RAPIDS     SUNNY     75  39  27 MISG      30.04F
MARSHFIELD     MOSUNNY   74  43  32 VRB5      30.04F
RICE LAKE      SUNNY     68  41  37 SW7       30.08F
$$

...NORTHEAST IOWA...


CITY           SKY/WX    TMP DP  RH WIND       PRES   REMARKS
DECORAH        SUNNY     72  46  40 N5        30.06F
MASON CITY     SUNNY     75  45  34 VRB6      30.08F
CHARLES CITY   MOSUNNY   73  46  38 CALM      30.08F
OELWEIN        MOSUNNY   73  48  40 SE5       30.07F
$$

...ELSEWHERE IN IOWA...


CITY           SKY/WX    TMP DP  RH WIND       PRES   REMARKS
DES MOINES     MOSUNNY   76  49  38 VRB5      30.07F
IOWA CITY      MOSUNNY   74  51  44 W5        30.06F
FORT DODGE     MOSUNNY   73  48  40 S3        30.08F
$$

...NORTHERN ILLINOIS...


CITY           SKY/WX    TMP DP  RH WIND       PRES   REMARKS
CHICAGO-OHARE  MOSUNNY   75  45  34 VRB6      30.05F
CHICAGO-MIDWAY MOSUNNY   78  48  34 CALM      30.05F
MOLINE         SUNNY     78  47  33 VRB3      30.05F
ROCKFORD       PTSUNNY   75  47  36 NW5       30.07F
PEORIA         PTSUNNY   78  53  41 CALM      30.07F
$$

NOTE: "FAIR" INDICATES FEW OR NO CLOUDS BELOW 12,000 FEET WITH NO
SIGNIFICANT WEATHER AND/OR OBSTRUCTIONS TO VISIBILITY. WIND
SPEEDS ARE IN MILES-PER-HOUR.



USA.gov is the U.S. government's official web portal to all federal, state and local government web resources and services.